Погода в Алешне

Россия / Орловская область     53°00′51″N   36°29′50″E
темп.,
°C
ветер,
м/с
пор.,
м/с
влажн.,
%
обл.,
%
осадки,
мм/ч
давл.,
гПа
погр.,
м
29 июня, ср
ср2900:00+16всв388877 0.0 1020139
03:00+14всв34814 0.0 102160
06:00+14в3685100 0.0 1021142
09:00+19всв456496 0.0 1021418
12:00+21всв445298 0.0 10211122
15:00+22всв3348100 0.0 10201386
18:00+21всв33602 0.0 10191188
21:00+15в347430 0.0 102043
30 июня, чт
чт3000:00+14в3375100 0.0 102041
03:00+12вюв22780 0.0 102016
06:00+13всв22780 0.0 102062
09:00+18св22635 0.0 1019535
12:00+21ссв34510 0.0 10191455
15:00+22с45501 0.0 10181896
18:00+22с46626 0.0 10171062
21:00+16с227813 0.0 101821
1 июля, пт
пт100:00+14ссз3471100 0.0 101857
03:00+13с34770 0.0 101967
06:00+14с37810 0.0 1019150
09:00+19с68675 0.0 1019627
12:00+21ссв685623 0.0 10201524
15:00+20ссв68485 0.0 10201567
18:00+19св57600 0.0 10211475
21:00+14всв33740 0.0 102225
2 июля, сб
сб200:00+12ссв11700 0.0 102310
03:00+10ссз22745 0.0 102317
06:00+12ссз24815 0.0 1024114
09:00+17с34601 0.0 1023477
12:00+21с35532 0.0 10221275
15:00+23с34505 0.0 10211333
18:00+22ссз34605 0.0 10201032
21:00+18зсз22725 0.0 102011
3 июля, вс
вс300:00+16зсз3376100 0.0 101935
03:00+15зсз367525 0.0 101987
06:00+16сз378396 0.0 1019162
09:00+22сз456998 0.0 1018425
12:00+25сз4559100 0.0 1017892
15:00+26с466181 0.8 10171436
18:00+23юз3379100 2.1 1017133
21:00+17з369399 5.9 1018136